Location: B?jaj?g
(11.7167°N, 92.6667°E)
Time: 11:07:53
(UTC+00:00)

Meteor 1-14 Rocket - Visible Passes

Search period start: 20 June 2021 00:00
Search period end: 30 June 2021 00:00
Orbit: 833 x 919 km, 81.3° (Epoch: 19 June)

Date Brightness Start Highest point End Pass type
(mag) Time Alt. Az. Time Alt. Az. Time Alt. Az.
20 Jun 6.2 21:33:22 10° SSE 21:38:14 27° E 21:43:01 10° NE visible
21 Jun 6.0 21:28:51 10° SSE 21:33:53 30° E 21:38:48 10° NE visible
22 Jun 5.8 21:24:23 10° SSE 21:29:32 32° E 21:34:34 10° NNE visible
23 Jun 5.6 21:20:57 15° SSE 21:25:11 35° E 21:30:20 10° NNE visible
24 Jun 5.5 21:17:32 21° SSE 21:20:51 38° E 21:26:05 10° NNE visible
24 Jun 5.9 23:00:58 10° WSW 23:04:07 15° W 23:07:14 10° NW visible
25 Jun 5.3 21:14:03 28° SE 21:16:29 42° E 21:21:49 10° NNE visible
25 Jun 6.0 22:57:05 10° WSW 22:59:47 13° W 23:02:28 10° NW visible
26 Jun 5.1 21:10:32 37° SE 21:12:09 46° E 21:17:33 10° NNE visible
26 Jun 6.0 22:53:19 10° WSW 22:55:28 12° W 22:57:35 10° WNW visible
27 Jun 4.9 21:06:57 46° ESE 21:07:48 50° E 21:13:15 10° NNE visible
27 Jun 6.1 22:49:48 10° W 22:51:08 11° W 22:52:27 10° WNW visible
28 Jun 4.7 21:03:20 55° E 21:03:27 55° E 21:08:57 10° NNE visible
29 Jun 4.7 20:59:39 57° ENE 20:59:39 57° ENE 21:04:39 10° NNE visible
